Weather Roundup
Issued by NWS Chicago, IL

Home | Current Version | Previous Version | Graphics & Text | Print | Product List | Glossary On
Versions: 1 2 3 4 5 6 7 8 9 10 11 12 13 14 15 16 17 18 19 20 21 22 23 24 25 26 27 28 29 30 31 32 33 34 35 36 37 38 39 40 41 42 43 44 45 46 47 48 49 50
000
NZUS59 KLOT 271258
HRRLOT

CHICAGO AREA WEATHER ROUNDUP
NATIONAL WEATHER SERVICE CHICAGO/ROMEOVILLE IL
700 AM CST THU NOV 27 2014

NOTE: "FAIR" INDICATES FEW OR NO CLOUDS BELOW 12,000 FEET WITH NO
SIGNIFICANT WEATHER AND/OR OBSTRUCTIONS TO VISIBILITY.

* THESE STATIONS ARE NOT UNDER NWS QUALITY CONTROL. THEY ALSO MAY NOT
  REPORT WEATHER SUCH AS PRECIPITATION OR FOG.

ILZ005-006-012>014-019>023-271400-
NORTHEAST ILLINOIS

CITY           SKY/WX    TMP DP  RH WIND       PRES   REMARKS
OHARE          CLOUDY    24  19  81 NW10      30.27R WCI  14
MIDWAY         CLOUDY    25  19  78 W10       30.28R WCI  15
AURORA         CLOUDY    22  17  81 NW12      30.30R HAZE    WCI  10
WAUKEGAN       NOT AVBL
DUPAGE AIRPORT CLOUDY    23  18  81 NW10      30.28R WCI  12
WHEELING       CLOUDY    24  19  81 NW12      30.29R WCI  13
NORTHERLY IS     N/A     26  20  77 W8          N/A  WCI  18
$$

WIZ051-052-058>065-066-070>072-271400-
SOUTHEAST WISCONSIN

CITY           SKY/WX    TMP DP  RH WIND       PRES   REMARKS
MILWAUKEE      MOCLDY    24  17  74 NW12      30.26R WCI  13
KENOSHA*       CLOUDY    23  18  81 NW10      30.26R WCI  12
RACINE*        CLOUDY    24  18  77 NW12      30.27R WCI  13
WAUKESHA       CLOUDY    19  18  93 NW12      30.27R WCI   7
$$

INZ001>003-010>013-019-020-271400-
NORTHWEST INDIANA

CITY           SKY/WX    TMP DP  RH WIND       PRES   REMARKS
GARY*          CLOUDY    28  21  74 W8        30.27R WCI  20
MICHIGAN CITY* NOT AVBL
RENSSELAER*    NOT AVBL
$$

LMZ740>746-271400-
SOUTHERN LAKE MICHIGAN

STATION/POSITION TIME  SKY/WX   TEMP WIND        PRES    VSBY
                                AIR  DIR/SP/G
                 (UTC)          (F)  (DEG/KT/KT) (MB)    (MI)
HARRISON CRIB    1200            26  310/ 12/ 15   N/A
BURNHAM HARBOR   1200            26  270/  4/ 11   N/A
CALUMET HARBOR   1200            26  290/  5/  9 1023.4R
BURNS HARBOR     NOT AVBL
MICHIGAN CITY    1200            31  290/ 20/ 24   N/A
$$

ABBREVIATIONS USED IN REMARKS
   TC - TEMPERATURE IN CELSIUS
  WCI - WIND CHILL INDEX
   HX - HEAT INDEX
  VSB - VISIBILITY
$$



USA.gov is the U.S. government's official web portal to all federal, state and local government web resources and services.